Lake Tchukolako Weather Center

Moon Phase Calendar



Lake Tchukolako Water Level
Online Cameras

 


      

Current Conditions in Gordon
4/20/2021 6:46:03 PM

76°F
Feels Like 74
Clear
Humidity
33%
Pressure
29.91"
Wind
4.6 mph (SSW)
Dew Point
44°F
UV Index
0/10 (Low)
Visibility
6 mi

Hourly Forecast

Date & Time Tue, Apr 20
6:00 PM
Tue, Apr 20
7:00 PM
Tue, Apr 20
8:00 PM
Tue, Apr 20
9:00 PM
Tue, Apr 20
10:00 PM
Tue, Apr 20
11:00 PM
Wed, Apr 21
12:00 AM
Wed, Apr 21
1:00 AM
Wed, Apr 21
2:00 AM
Wed, Apr 21
3:00 AM
Wed, Apr 21
4:00 AM
Wed, Apr 21
5:00 AM
Wed, Apr 21
6:00 AM
Wed, Apr 21
7:00 AM
Wed, Apr 21
8:00 AM
Wed, Apr 21
9:00 AM
Wed, Apr 21
10:00 AM
Wed, Apr 21
11:00 AM
Wed, Apr 21
12:00 PM
Wed, Apr 21
1:00 PM
Wed, Apr 21
2:00 PM
Wed, Apr 21
3:00 PM
Wed, Apr 21
4:00 PM
Wed, Apr 21
5:00 PM
Wed, Apr 21
6:00 PM
Wed, Apr 21
7:00 PM
Wed, Apr 21
8:00 PM
Wed, Apr 21
9:00 PM
Wed, Apr 21
10:00 PM
Wed, Apr 21
11:00 PM
Thu, Apr 22
12:00 AM
Thu, Apr 22
1:00 AM
Thu, Apr 22
2:00 AM
Thu, Apr 22
3:00 AM
Thu, Apr 22
4:00 AM
Thu, Apr 22
5:00 AM
Thu, Apr 22
6:00 AM
Thu, Apr 22
7:00 AM
Thu, Apr 22
8:00 AM
Thu, Apr 22
9:00 AM
Thu, Apr 22
10:00 AM
Thu, Apr 22
11:00 AM
Thu, Apr 22
12:00 PM
Thu, Apr 22
1:00 PM
Thu, Apr 22
2:00 PM
Thu, Apr 22
3:00 PM
Thu, Apr 22
4:00 PM
Thu, Apr 22
5:00 PM
Condition
Clouds

Clear

Clear

Clouds

Clouds

Clouds

Clouds

Clouds

Clouds

Clear

Clear

Clear

Clear

Clear

Clear

Clear

Clear

Clear

Clear

Clear

Clear

Clear

Clear

Clear

Clear

Clear

Clear

Clear

Clear

Clear

Clear

Clear

Clouds

Clouds

Clouds

Clouds

Clouds

Clouds

Clouds

Clouds

Clouds

Clouds

Clouds

Clouds

Clouds

Clouds

Clouds

Clouds
Temperature 75°F76°F73°F71°F70°F66°F62°F60°F59°F57°F56°F55°F54°F53°F56°F60°F62°F64°F66°F67°F68°F67°F66°F65°F63°F60°F55°F52°F50°F48°F46°F45°F43°F41°F40°F39°F39°F38°F42°F47°F52°F56°F59°F62°F64°F66°F67°F67°F
Feels Like 74°F74°F72°F70°F68°F65°F61°F59°F57°F56°F54°F53°F52°F52°F55°F58°F61°F63°F65°F66°F66°F65°F63°F62°F61°F57°F52°F49°F46°F44°F43°F41°F40°F39°F38°F36°F35°F35°F39°F45°F49°F53°F56°F59°F61°F63°F64°F65°F
Cloudiness 12%1%9%15%39%55%59%49%41%0%0%0%0%0%0%0%0%0%0%0%1%0%0%0%0%0%0%0%3%2%4%5%15%91%90%60%45%36%31%74%46%40%34%35%31%17%25%22%
Visibility 6 mi6 mi6 mi6 mi6 mi6 mi6 mi6 mi6 mi6 mi6 mi6 mi6 mi6 mi6 mi6 mi6 mi6 mi6 mi6 mi6 mi6 mi6 mi6 mi6 mi6 mi6 mi6 mi6 mi6 mi6 mi6 mi6 mi6 mi6 mi6 mi6 mi6 mi6 mi6 mi6 mi6 mi6 mi6 mi6 mi6 mi6 mi6 mi
Precipitation 0%0%0%0%0%0%0%0%0%0%0%0%0%0%0%0%0%0%0%0%0%0%0%0%0%0%0%0%0%0%0%0%0%0%0%0%0%0%0%0%0%0%0%0%0%0%0%0%
Humidity 34%33%38%41%43%49%58%64%68%69%70%71%72%72%69%60%55%48%43%41%33%24%22%22%26%30%33%34%37%40%43%46%50%54%55%57%59%60%55%45%35%30%27%25%24%23%23%24%
Dew Point 45°F44°F46°F46°F46°F47°F47°F48°F48°F47°F46°F45°F45°F45°F46°F46°F46°F45°F44°F43°F37°F29°F27°F26°F28°F29°F27°F25°F25°F25°F25°F25°F26°F26°F26°F25°F25°F26°F27°F27°F26°F25°F26°F26°F27°F28°F29°F29°F
Pressure 29.91"29.91"29.91"29.91"29.94"29.94"29.94"29.94"29.94"29.91"29.91"29.91"29.91"29.94"29.97"29.97"29.97"30"30"30"30"30"30"30"30.03"30.06"30.09"30.12"30.18"30.18"30.18"30.21"30.21"30.21"30.21"30.21"30.21"30.24"30.24"30.27"30.27"30.27"30.24"30.21"30.21"30.18"30.15"30.15"
Wind Speed 6.6 mph3.4 mph2.2 mph2.4 mph3.3 mph4.4 mph5.3 mph5.9 mph5.8 mph5.7 mph5.7 mph5.4 mph5.4 mph6.3 mph7.4 mph11.9 mph12 mph13.1 mph14.3 mph14.9 mph15.2 mph15.5 mph15.1 mph14.5 mph13.1 mph12.1 mph11.3 mph11.5 mph10.6 mph8.8 mph7.2 mph5.9 mph4.9 mph4.4 mph4.2 mph4.5 mph4.3 mph3.9 mph4 mph4.3 mph3.8 mph4.2 mph4.8 mph6 mph7.4 mph8 mph8.6 mph8.7 mph
Wind
Direction
245°
WSW
252°
WSW
258°
WSW
255°
WSW
231°
SW
223°
SW
240°
WSW
255°
WSW
266°
W
270°
W
275°
W
271°
W
266°
W
270°
W
279°
W
294°
WNW
292°
WNW
290°
WNW
291°
WNW
294°
WNW
297°
WNW
304°
NW
308°
NW
310°
NW
313°
NW
318°
NW
326°
NW
334°
NNW
336°
NNW
335°
NNW
340°
NNW
347°
NNW
348°
NNW
348°
NNW
337°
NNW
340°
NNW
345°
NNW
351°
N
11°
N
10°
N
358°
N
344°
NNW
318°
NW
301°
WNW
291°
WNW
292°
WNW
296°
WNW
302°
WNW

Daily Forecast

Date High Low Precip. Humidity
Today
Apr 20

Clouds
76 °F
54 °F
0%
38%
Wednesday
Apr 21

Clear
68 °F
48 °F
0%
41%
Thursday
Apr 22

Clouds
67 °F
38 °F
0%
24%
Friday
Apr 23

Clouds
72 °F
45 °F
0%
30%
Saturday
Apr 24

Rain
68 °F
55 °F
100%
94%
Sunday
Apr 25

Rain
79 °F
56 °F
63%
40%
Monday
Apr 26

Clear
80 °F
53 °F
0%
38%
Tuesday
Apr 27

Clouds
79 °F
58 °F
0%
44%
Wednesday
Apr 28

Clouds
79 °F
58 °F
0%
44%
Thursday
Apr 29

Rain
71 °F
57 °F
100%
83%
Friday
Apr 30

Clear
74 °F
49 °F
0%
37%
Saturday
May 1

Clear
77 °F
52 °F
0%
36%
Sunday
May 2

Clouds
68 °F
55 °F
0%
61%
Monday
May 3

Rain
76 °F
62 °F
100%
68%
Tuesday
May 4

Rain
82 °F
56 °F
69%
39%
Wednesday
May 5

Clouds
85 °F
59 °F
0%
34%

Temperature 8-14 Day Outlook



Precipitation 8-14 Day Outlook




Quick Links
Lake Tchukolako News
Lake Tchukolako Photos
Lake Tchukolako Videos




About Us
Contact Us
Site Map
Search Site
Advertise With Us
   
Tchukolako.LakesOnline.com
THE LAKE TCHUKOLAKO WEBSITE

Copyright 2021, Lakes Online
Privacy    |    Legal